FW2862 Weather Reports


Display with metric or nautical units.
time (UTC)temp
F
wind
direction
speed
MPH
gust
MPH
rain 1hr
in
rain 24hr
in
rain mn
in
humidity
%
barometer
mb
20260507104827 53 329 0.0 0.0 0.00 0.00 0.02 93 1011.7
20260507104603 53 329 0.0 0.0 0.00 0.00 0.02 93 1011.7
20260507103824 53 329 0.0 0.0 0.00 0.00 0.02 93 1011.7
20260507103325 53 329 0.0 0.0 0.00 0.00 0.02 93 1011.7
20260507102823 53 329 0.0 0.0 0.00 0.00 0.02 93 1011.4
20260507102321 53 329 0.0 0.0 0.00 0.00 0.02 93 1011.3
20260507101818 53 329 0.0 0.0 0.00 0.00 0.02 93 1011.4
20260507101316 53 329 0.0 0.0 0.00 0.00 0.02 92 1011.3
20260507100815 53 329 0.0 0.0 0.00 0.00 0.02 92 1011.2
20260507100311 53 329 0.0 0.0 0.00 0.00 0.02 93 1011.1
20260507095811 53 329 0.0 0.0 0.00 0.00 0.02 92 1011.2
20260507095535 53 329 0.0 0.0 0.00 0.00 0.02 93 1011.3
20260507095032 53 329 0.0 0.0 0.00 0.00 0.02 93 1011.2
20260507094305 53 329 0.0 0.0 0.00 0.00 0.02 93 1011.2
20260507093805 53 329 0.0 0.0 0.00 0.00 0.02 92 1011.2
20260507093302 53 329 0.0 0.0 0.00 0.00 0.02 92 1011.0
20260507092804 53 329 0.0 0.0 0.00 0.00 0.02 92 1011.1
20260507092302 53 329 0.0 0.0 0.00 0.00 0.02 92 1011.2
20260507091800 53 329 0.0 0.0 0.00 0.00 0.02 92 1011.1
20260507091257 53 329 0.0 0.0 0.00 0.00 0.02 92 1011.2
20260507091019 53 329 0.0 0.0 0.00 0.00 0.02 93 1011.3
20260507090519 53 329 0.0 0.0 0.00 0.00 0.02 93 1011.3
20260507090013 53 329 0.0 0.0 0.00 0.00 0.02 93 1011.1
20260507085511 54 329 0.0 0.0 0.00 0.00 0.02 93 1010.9
20260507084747 54 329 0.0 0.0 0.00 0.00 0.02 93 1010.9
20260507084246 54 329 0.0 0.0 0.00 0.00 0.02 93 1010.8
20260507083744 53 329 0.0 0.0 0.00 0.00 0.02 93 1010.8
20260507082956 54 329 0.0 0.0 0.00 0.19 0.02 93 1010.8
20260507082717 54 329 0.0 0.0 0.00 0.19 0.02 93 1010.7
20260507081955 54 329 0.0 0.0 0.00 0.19 0.02 93 1010.5
20260507081454 54 329 0.0 0.0 0.00 0.19 0.02 93 1010.4
20260507081213 54 329 0.0 0.0 0.00 0.19 0.02 92 1010.4
20260507080452 54 329 0.0 0.0 0.00 0.19 0.02 92 1010.3
20260507075949 54 329 0.0 0.0 0.00 0.19 0.02 92 1010.3
20260507075448 54 329 0.0 0.0 0.00 0.19 0.02 92 1010.2
20260507074946 54 329 0.0 0.0 0.00 0.19 0.02 91 1010.3
20260507074447 54 329 0.0 1.0 0.00 0.19 0.02 91 1010.2
20260507073948 54 329 0.0 1.0 0.00 0.19 0.02 91 1010.1
20260507073444 54 330 0.0 1.0 0.00 0.19 0.02 91 1010.1
20260507072941 54 330 0.0 1.0 0.00 0.19 0.02 90 1010.1
20260507072440 54 330 0.0 2.0 0.00 0.19 0.02 90 1010.2
20260507071939 54 330 0.0 2.0 0.00 0.19 0.02 90 1010.2
20260507071440 54 328 0.0 4.0 0.00 0.19 0.02 89 1010.1
20260507070940 55 327 1.0 4.0 0.00 0.19 0.02 89 1010.0
20260507070436 55 227 1.0 4.0 0.00 0.19 0.02 90 1010.3
20260507065938 55 284 1.0 4.0 0.00 0.19 0.02 90 1010.1
20260507065438 55 242 0.0 3.0 0.00 0.19 0.02 91 1010.3
20260507064938 55 238 0.0 3.0 0.00 0.19 0.02 92 1010.2
20260507064436 55 267 0.0 2.0 0.00 0.19 0.02 92 1010.3
20260507063937 55 264 0.0 2.0 0.00 0.19 0.02 93 1010.3
20260507063703 56 265 0.0 4.0 0.01 0.19 0.02 93 1010.4
20260507062937 56 265 0.0 4.0 0.01 0.19 0.02 93 1010.1
20260507062440 56 265 1.0 4.0 0.01 0.19 0.02 93 1010.0
20260507061940 56 271 0.0 4.0 0.01 0.19 0.02 93 1010.0
20260507061436 56 306 0.0 2.0 0.01 0.19 0.02 94 1010.0
20260507060937 56 306 0.0 1.0 0.01 0.19 0.02 94 1010.2
20260507060437 56 306 0.0 1.0 0.01 0.19 0.02 93 1010.4
20260507055938 56 306 0.0 1.0 0.01 0.19 0.02 93 1010.4
20260507055655 56 306 0.0 0.0 0.01 0.19 0.02 93 1010.2
20260507054938 56 306 0.0 1.0 0.02 0.19 0.02 93 1010.2
20260507054439 56 306 0.0 1.0 0.02 0.19 0.02 93 1010.3
20260507053934 57 306 0.0 0.0 0.02 0.19 0.02 93 1010.4
20260507053421 57 306 0.0 0.0 0.01 0.18 0.01 92 1010.3
20260507052902 57 306 0.0 0.0 0.01 0.18 0.01 92 1010.5
20260507052349 57 306 0.0 0.0 0.01 0.18 0.01 91 1010.5
20260507051840 57 306 0.0 2.0 0.01 0.18 0.01 91 1010.6
20260507051322 57 306 0.0 2.0 0.01 0.18 0.01 91 1010.3
20260507051037 57 311 0.0 2.0 0.01 0.18 0.01 91 1010.2
20260507050530 58 311 0.0 2.0 0.01 0.18 0.01 90 1010.6
20260507045746 58 300 0.0 3.0 0.01 0.18 0.01 89 1010.6
20260507045247 58 300 0.0 3.0 0.01 0.18 0.01 87 1010.3
20260507044737 59 333 1.0 3.0 0.00 0.17 0.00 86 1010.6
20260507044231 59 234 1.0 3.0 0.00 0.17 0.00 85 1010.6
20260507043726 59 286 1.0 4.0 0.00 0.17 0.00 85 1010.2
20260507043446 60 333 1.0 4.0 0.00 0.17 0.00 84 1010.4
20260507042704 60 72 0.0 2.0 0.00 0.17 0.00 84 1010.2
20260507042200 60 5 1.0 4.0 0.00 0.17 0.00 83 1010.4
20260507041652 61 315 1.0 4.0 0.00 0.17 0.00 82 1010.3
20260507041411 61 346 1.0 6.0 0.00 0.17 0.00 82 1010.4
20260507040845 62 278 0.0 6.0 0.00 0.17 0.00 83 1010.4
20260507040126 62 311 0.0 1.0 0.00 0.17 0.00 82 1009.9
20260507035617 62 311 0.0 2.0 0.00 0.17 0.17 81 1009.7
20260507035102 62 311 0.0 4.0 0.00 0.17 0.17 80 1009.7
20260507035044 62 327 0.0 4.0 0.00 0.17 0.17 79 1009.6
20260507034311 62 306 0.0 4.0 0.00 0.17 0.17 79 1009.7
20260507033544 62 249 0.0 2.0 0.00 0.17 0.17 79 1009.4
20260507033037 63 246 0.0 2.0 0.00 0.17 0.17 79 1009.6
20260507032522 63 287 0.0 2.0 0.00 0.17 0.17 78 1009.9
20260507032234 63 305 0.0 3.0 0.00 0.17 0.17 79 1009.7
20260507031510 63 277 0.0 3.0 0.00 0.17 0.17 79 1009.7
20260507030957 63 323 0.0 2.0 0.00 0.17 0.17 79 1009.6
20260507030450 63 331 0.0 1.0 0.00 0.17 0.17 79 1009.6
20260507025945 63 331 0.0 0.0 0.00 0.17 0.17 80 1009.5
20260507025439 64 331 0.0 2.0 0.00 0.17 0.17 80 1009.4
20260507024932 64 331 1.0 3.0 0.00 0.17 0.17 80 1009.4
20260507024426 64 315 0.0 3.0 0.00 0.17 0.17 81 1009.3
20260507023913 64 340 1.0 5.0 0.00 0.17 0.17 83 1009.3
20260507023405 65 298 1.0 5.0 0.00 0.17 0.17 84 1009.4
20260507022905 65 336 1.0 4.0 0.00 0.17 0.17 84 1009.3
20260507022401 65 248 1.0 4.0 0.00 0.17 0.17 85 1009.1
20260507021901 65 325 1.0 3.0 0.00 0.17 0.17 85 1008.9
20260507021846 65 308 0.0 3.0 0.00 0.17 0.17 86 1009.0
20260507020859 66 317 0.0 3.0 0.00 0.17 0.17 87 1009.0
20260507020357 66 278 0.0 2.0 0.00 0.17 0.17 86 1009.1
20260507015858 66 278 0.0 2.0 0.00 0.17 0.17 86 1009.1
20260507015357 66 277 0.0 2.0 0.00 0.17 0.17 86 1009.2
20260507014855 66 277 0.0 2.0 0.00 0.17 0.17 85 1009.0
20260507014616 66 267 0.0 2.0 0.00 0.17 0.17 85 1008.7
20260507013856 66 267 0.0 3.0 0.00 0.17 0.17 85 1008.8
20260507013355 66 342 0.0 3.0 0.00 0.17 0.17 84 1009.1
20260507012848 66 317 0.0 2.0 0.00 0.17 0.17 84 1009.1
20260507012348 67 318 0.0 2.0 0.00 0.17 0.17 84 1009.1
20260507011846 67 318 0.0 2.0 0.00 0.17 0.17 84 1009.1
20260507011345 67 325 0.0 3.0 0.00 0.17 0.17 83 1009.1
20260507011110 67 336 1.0 3.0 0.00 0.17 0.17 84 1009.2
20260507010601 67 281 0.0 3.0 0.00 0.17 0.17 86 1009.2
20260507005841 67 316 0.0 0.0 0.00 0.17 0.17 89 1009.1
20260507005342 67 316 0.0 0.0 0.00 0.17 0.17 89 1009.1
20260507004837 67 316 0.0 0.0 0.00 0.17 0.17 89 1008.8
20260507004335 67 316 0.0 0.0 0.00 0.17 0.17 88 1008.5
20260507004106 67 316 0.0 0.0 0.00 0.17 0.17 88 1008.7
20260507003337 67 316 0.0 0.0 0.00 0.17 0.17 88 1008.7
20260507002837 67 316 0.0 0.0 0.00 0.17 0.17 88 1008.4
20260507002336 67 316 0.0 0.0 0.00 0.17 0.17 88 1008.5
20260507002305 67 316 0.0 0.0 0.00 0.17 0.17 87 1008.4
20260507001544 68 316 0.0 0.0 0.00 0.17 0.17 87 1008.3
20260507000810 68 316 0.0 0.0 0.00 0.17 0.17 86 1008.3
20260507000306 68 316 0.0 0.0 0.00 0.17 0.17 86 1008.3
20260506235758 68 316 0.0 0.0 0.00 0.17 0.17 86 1008.2
20260506235257 68 316 0.0 0.0 0.00 0.17 0.17 86 1008.2
20260506234756 68 316 0.0 0.0 0.00 0.17 0.17 85 1008.2
20260506234525 68 316 0.0 0.0 0.00 0.17 0.17 85 1007.9
20260506233756 68 316 0.0 0.0 0.00 0.17 0.17 85 1007.8
20260506233256 68 316 0.0 0.0 0.00 0.17 0.17 85 1007.8
20260506232754 69 316 0.0 0.0 0.00 0.17 0.17 85 1008.0
20260506232254 69 316 0.0 0.0 0.00 0.17 0.17 85 1007.8
20260506231751 69 316 0.0 0.0 0.00 0.17 0.17 85 1007.6
20260506231252 69 316 0.0 0.0 0.00 0.17 0.17 85 1007.6
20260506230749 69 316 0.0 0.0 0.00 0.17 0.17 84 1007.6
20260506230251 69 316 0.0 0.0 0.00 0.17 0.17 84 1007.8
20260506225746 69 316 0.0 0.0 0.00 0.17 0.17 84 1007.7
20260506225503 69 316 0.0 0.0 0.00 0.17 0.17 84 1007.7
20260506225215 69 316 0.0 0.0 0.00 0.17 0.17 84 1007.8
20260506224216 69 316 0.0 0.0 0.00 0.17 0.17 84 1007.5
20260506223717 69 316 0.0 0.0 0.00 0.17 0.17 84 1007.4
20260506223217 69 316 0.0 0.0 0.00 0.17 0.17 84 1007.5
20260506222717 69 316 0.0 0.0 0.00 0.17 0.17 84 1007.6
20260506222216 69 316 0.0 0.0 0.00 0.17 0.17 84 1007.7
20260506221719 69 316 0.0 0.0 0.00 0.17 0.17 83 1007.7
20260506221219 69 316 0.0 1.0 0.00 0.17 0.17 83 1007.7
20260506221203 69 316 0.0 1.0 0.00 0.17 0.17 82 1007.7
20260506220209 69 315 0.0 0.0 0.00 0.17 0.17 82 1007.7
20260506215928 69 315 0.0 1.0 0.00 0.17 0.17 82 1007.6
20260506215637 70 315 0.0 2.0 0.00 0.17 0.17 82 1022.7
20260506214657 70 315 0.0 2.0 0.00 0.17 0.17 82 1007.7
20260506214157 70 311 0.0 0.0 0.00 0.17 0.17 81 1007.6
20260506213657 70 311 0.0 1.0 0.00 0.17 0.17 81 1007.5
20260506213158 70 311 0.0 1.0 0.00 0.17 0.17 81 1007.4
20260506213146 70 310 0.0 1.0 0.00 0.17 0.17 81 1007.4
20260506212156 70 310 0.0 4.0 0.00 0.17 0.17 81 1007.3
20260506211917 70 310 0.0 4.0 0.00 0.17 0.17 80 1007.3
20260506211157 70 11 0.0 1.0 0.00 0.17 0.17 80 1007.3
20260506210657 70 11 0.0 1.0 0.00 0.17 0.17 80 1007.3
20260506210158 70 309 0.0 1.0 0.00 0.17 0.17 81 1007.2
20260506205657 70 311 0.0 1.0 0.00 0.17 0.17 80 1007.1
20260506205157 70 311 0.0 3.0 0.00 0.17 0.17 80 1007.2
20260506204658 70 312 0.0 3.0 0.00 0.17 0.17 80 1007.2
20260506204158 69 335 0.0 2.0 0.00 0.17 0.17 83 1006.9
20260506204145 69 335 0.0 2.0 0.00 0.17 0.17 82 1007.0
20260506203417 69 339 0.0 1.0 0.00 0.17 0.17 82 1007.1
20260506202657 69 340 0.0 2.0 0.00 0.17 0.17 82 1007.2
20260506202157 69 55 0.0 2.0 0.00 0.17 0.17 82 1007.3
20260506201920 69 62 0.0 2.0 0.00 0.17 0.17 82 1007.2
20260506201422 69 338 0.0 1.0 0.00 0.17 0.17 82 1007.1
20260506200656 69 338 0.0 2.0 0.00 0.17 0.17 81 1007.1
20260506200412 69 338 0.0 3.0 0.00 0.17 0.17 82 1007.1
20260506195919 69 333 0.0 3.0 0.00 0.17 0.17 82 1007.2
20260506195406 69 81 0.0 1.0 0.00 0.17 0.17 81 1007.1
20260506194635 69 84 0.0 3.0 0.00 0.17 0.17 83 1007.1
20260506194123 69 84 0.0 3.0 0.00 0.17 0.17 82 1007.2
20260506193622 69 348 1.0 2.0 0.00 0.17 0.17 82 1007.1
20260506193112 69 330 0.0 2.0 0.00 0.17 0.17 84 1007.3
20260506192613 68 355 0.0 2.0 0.00 0.17 0.17 84 1007.2
20260506192114 68 350 0.0 2.0 0.00 0.17 0.17 84 1007.2
20260506191610 68 348 0.0 4.0 0.00 0.17 0.17 84 1007.3
20260506191112 68 280 1.0 4.0 0.00 0.17 0.17 85 1007.4
20260506190614 67 52 1.0 3.0 0.00 0.17 0.17 85 1007.4
20260506190110 67 345 0.0 2.0 0.00 0.17 0.17 86 1007.5
20260506185611 67 355 0.0 1.0 0.00 0.17 0.17 86 1007.4
20260506185336 67 355 0.0 3.0 0.00 0.17 0.17 87 1007.6
20260506184609 66 335 0.0 3.0 0.00 0.17 0.17 87 1007.7
20260506184106 66 19 1.0 3.0 0.00 0.17 0.17 88 1007.7
20260506183608 66 93 0.0 5.0 0.00 0.17 0.17 88 1007.8
20260506183101 65 94 0.0 3.0 0.00 0.17 0.17 88 1007.9
20260506182817 65 50 0.0 3.0 0.00 0.17 0.17 89 1007.8
20260506182048 65 355 0.0 3.0 0.00 0.17 0.17 89 1007.9
20260506181804 65 327 1.0 3.0 0.00 0.17 0.17 88 1007.8
20260506181030 65 355 0.0 2.0 0.00 0.17 0.17 89 1007.9
20260506180523 65 103 0.0 2.0 0.00 0.17 0.17 90 1007.9
20260506180017 65 38 0.0 1.0 0.00 0.17 0.17 91 1007.9
20260506175504 65 42 0.0 3.0 0.00 0.17 0.17 91 1008.0
20260506174957 64 42 1.0 5.0 0.00 0.17 0.17 91 1008.0
20260506174713 64 329 1.0 5.0 0.00 0.17 0.17 91 1008.0
20260506174201 64 23 0.0 3.0 0.00 0.17 0.17 92 1008.0
20260506173426 64 60 0.0 3.0 0.00 0.17 0.17 92 1007.9
20260506173151 64 44 1.0 3.0 0.00 0.17 0.17 92 1007.9
20260506172853 64 37 0.0 2.0 0.00 0.17 0.17 93 1008.0
20260506171905 63 37 1.0 5.0 0.00 0.17 0.17 93 1008.1
20260506171359 63 15 1.0 5.0 0.00 0.17 0.17 93 1008.2
20260506170844 63 44 1.0 3.0 0.00 0.17 0.17 93 1008.3
20260506170334 63 90 0.0 3.0 0.00 0.17 0.17 94 1008.2
20260506170051 63 94 0.0 3.0 0.00 0.17 0.17 94 1008.2
20260506165319 62 116 1.0 4.0 0.00 0.17 0.17 94 1008.2
20260506165036 62 130 1.0 5.0 0.00 0.17 0.17 95 1008.1
20260506164302 62 316 1.0 4.0 0.00 0.17 0.17 95 1008.3
20260506163757 62 39 1.0 4.0 0.00 0.17 0.17 94 1008.4
20260506163250 62 44 1.0 7.0 0.00 0.17 0.17 95 1008.3
20260506162931 62 103 0.0 3.0 0.01 0.17 0.17 95 1008.3
20260506162822 62 328 1.0 7.0 0.00 0.17 0.17 95 1008.2
20260506161730 62 104 1.0 5.0 0.01 0.17 0.17 95 1008.3
20260506161229 62 114 1.0 5.0 0.01 0.17 0.17 95 1008.7
20260506160728 62 116 1.0 6.0 0.01 0.17 0.17 95 1008.4
20260506160228 61 29 1.0 6.0 0.01 0.17 0.17 95 1008.7
20260506155728 61 205 1.0 3.0 0.01 0.17 0.17 96 1008.5
20260506155228 61 21 1.0 3.0 0.01 0.17 0.17 96 1008.5
20260506154730 61 94 1.0 2.0 0.01 0.17 0.17 95 1008.5
20260506154228 61 99 1.0 3.0 0.01 0.17 0.17 95 1008.5
20260506153731 61 114 0.0 3.0 0.01 0.17 0.17 96 1008.8
20260506153445 61 134 1.0 3.0 0.02 0.17 0.17 95 1008.8
20260506152729 61 136 1.0 3.0 0.02 0.17 0.17 95 1008.7
20260506152229 61 126 0.0 2.0 0.01 0.16 0.16 95 1008.7
20260506151723 61 149 1.0 4.0 0.02 0.16 0.16 95 1008.8
20260506151216 61 33 1.0 4.0 0.03 0.16 0.16 95 1008.9
20260506150712 61 193 1.0 3.0 0.04 0.16 0.16 95 1009.0
20260506150436 61 27 0.0 2.0 0.05 0.16 0.16 95 1009.2
20260506145948 61 142 0.0 2.0 0.07 0.16 0.16 95 1009.3
20260506145209 61 142 0.0 1.0 0.07 0.16 0.16 95 1009.6
20260506144709 61 142 0.0 2.0 0.08 0.16 0.16 95 1009.5
20260506144208 61 142 0.0 2.0 0.09 0.16 0.16 95 1009.4
20260506143708 61 142 1.0 5.0 0.10 0.16 0.16 95 1009.5
20260506143208 61 146 0.0 5.0 0.09 0.15 0.16 95 1009.5
20260506142709 61 147 0.0 3.0 0.10 0.15 0.15 94 1009.5
20260506142210 61 147 1.0 5.0 0.10 0.15 0.15 94 1009.1
20260506142150 61 66 0.0 5.0 0.09 0.14 0.14 94 1009.4
20260506141151 61 133 0.0 2.0 0.08 0.13 0.14 94 1009.4
20260506140642 61 132 1.0 3.0 0.08 0.12 0.12 94 1009.3
20260506140140 61 105 0.0 4.0 0.07 0.10 0.11 94 1009.2
20260506135641 61 145 0.0 4.0 0.06 0.09 0.10 93 1009.3
20260506135140 61 141 0.0 3.0 0.06 0.09 0.09 93 1009.5
20260506134639 61 74 0.0 2.0 0.06 0.08 0.08 93 1009.5
20260506134137 61 314 0.0 2.0 0.05 0.07 0.07 93 1009.6
20260506133638 61 313 0.0 2.0 0.05 0.06 0.06 93 1009.7
20260506133356 62 311 0.0 1.0 0.05 0.06 0.06 93 1009.9
20260506132636 62 311 0.0 2.0 0.05 0.05 0.05 92 1010.0
20260506132358 62 311 0.0 2.0 0.05 0.05 0.05 92 1009.9
20260506131633 62 310 0.0 1.0 0.05 0.05 0.05 92 1009.6
20260506131129 62 310 0.0 0.0 0.04 0.04 0.04 91 1009.6
20260506130619 62 310 0.0 0.0 0.04 0.04 0.04 91 1009.5
20260506130119 62 310 0.0 1.0 0.03 0.03 0.03 90 1009.5
20260506125619 62 310 0.0 1.0 0.03 0.03 0.03 89 1009.4
20260506125118 62 310 0.0 0.0 0.03 0.03 0.03 89 1009.3
20260506124617 63 310 0.0 0.0 0.02 0.02 0.02 89 1009.2
20260506124121 63 310 0.0 1.0 0.02 0.02 0.02 88 1009.2
20260506123620 63 310 0.0 1.0 0.01 0.01 0.01 87 1009.2
20260506123113 63 310 0.0 0.0 0.00 0.00 0.01 86 1009.4
20260506122600 64 310 0.0 0.0 0.00 0.00 0.00 84 1009.4
20260506122057 64 310 0.0 0.0 0.00 0.00 0.00 85 1009.5
20260506121559 64 310 0.0 1.0 0.00 0.00 0.00 83 1009.7
20260506121100 64 310 0.0 2.0 0.00 0.00 0.00 82 1009.8
20260506120602 64 310 0.0 2.0 0.00 0.00 0.00 82 1009.8
20260506120100 65 310 0.0 1.0 0.00 0.00 0.00 81 1009.7
20260506115600 65 333 0.0 1.0 0.00 0.00 0.00 80 1009.7
20260506115100 65 323 0.0 3.0 0.00 0.00 0.00 79 1009.6
20260506114551 65 323 0.0 3.0 0.00 0.00 0.00 78 1009.6
20260506114043 65 113 0.0 3.0 0.00 0.00 0.00 78 1009.6
20260506113759 65 155 0.0 3.0 0.00 0.00 0.00 77 1009.5
20260506113022 65 31 0.0 4.0 0.00 0.00 0.00 77 1009.4
20260506112514 65 31 1.0 4.0 0.00 0.00 0.00 76 1009.3
20260506112232 65 351 0.0 2.0 0.00 0.00 0.00 76 1009.3
20260506111715 65 76 0.0 2.0 0.00 0.00 0.00 76 1009.1
20260506110943 65 76 0.0 2.0 0.00 0.00 0.00 76 1009.0
20260506110442 65 77 0.0 2.0 0.00 0.00 0.00 76 1009.0
20260506105924 65 77 0.0 3.0 0.00 0.00 0.00 76 1009.1
20260506105414 65 77 0.0 3.0 0.00 0.00 0.00 75 1008.8